Regional Weather Roundup
Issued by NWS

Home | Current Version | Previous Version | Text Only | Print | Product List | Glossary On
Versions: 1 2 3 4 5 6 7 8 9 10 11 12 13 14 15 16 17 18 19 20 21 22 23 24 25 26 27 28 29 30 31 32 33 34 35 36 37 38 39 40 41 42 43 44 45 46 47 48 49 50
000
ASUS43 KMKX 301500
RWRWI

WISCONSIN REGIONAL WEATHER ROUNDUP
NATIONAL WEATHER SERVICE MILWAUKEE/SULLIVAN WI
1000 AM CDT WED JUL 30 2014

NOTE: "FAIR" INDICATES FEW OR NO CLOUDS BELOW 12,000 FEET WITH NO
SIGNIFICANT WEATHER AND/OR OBSTRUCTIONS TO VISIBILITY.

WIZ001-002-006>008-014>016-023>028-301600-
NORTHWEST WISCONSIN

CITY           SKY/WX    TMP DP  RH WIND       PRES   REMARKS
SUPERIOR ARPT  SUNNY     61  58  90 CALM      30.07S
ASHLAND        MOSUNNY   62  58  86 SW7       30.07F
HAYWARD        CLOUDY    57  57 100 VRB3      30.09S
SIREN          MOSUNNY   60  60  97 CALM      30.09S
RICE LAKE      CLOUDY    58  57  96 CALM      30.11F
LADYSMITH      CLOUDY    58  56  96 SW3       30.12S
EAU CLAIRE     NOT AVBL
MENOMONIE      SUNNY     67  58  72 CALM      30.09S
NEW RICHMOND   SUNNY     67  57  70 CALM      30.10S
OSCEOLA        SUNNY     66  60  80 CALM      30.12S
$$

WIZ003>005-009-010-017-018-301600-
NORTH CENTRAL WISCONSIN

CITY           SKY/WX    TMP DP  RH WIND       PRES   REMARKS
WOODRUFF       SUNNY     62  59  91 NW3       30.08F
RHINELANDER    SUNNY     61  53  75 CALM      30.08F
EAGLE RIVER    SUNNY     57  53  85 CALM      30.07F
LAND O LAKES   SUNNY     62  50  66 W5        30.08F
PHILLIPS       CLOUDY    56  54  93 NW3       30.09S
TOMAHAWK       CLOUDY    54  53  97 CALM      30.09S FOG
MEDFORD        CLOUDY    56  56  99 CALM      30.09S FOG
MERRILL        PTSUNNY   56  56  99 N3        30.09S
$$

WIZ029-030-035-036-043>047-301600-
CENTRAL WISCONSIN

CITY           SKY/WX    TMP DP  RH WIND       PRES   REMARKS
WAUSAU         LGT RAIN  64  54  69 VRB6      30.06F
MOSINEE        SUNNY     64  54  68 NE3       30.09S
MARSHFIELD     SUNNY     66  55  67 CALM      30.08S
STEVENS POINT  SUNNY     63  52  68 CALM      30.08S
WAUPACA        MOSUNNY   66  57  73 CALM      30.07R
WAUTOMA        NOT AVBL
WISC RAPIDS    SUNNY     68  56  65 MISG      30.08S
CAMP DOUGLAS   CLOUDY    59  59 100 NW6       30.09R
$$

WIZ011>013-019>022-031-037>040-048>050-301600-
NORTHEAST WISCONSIN

CITY           SKY/WX    TMP DP  RH WIND       PRES   REMARKS
ANTIGO         SUNNY     61  53  73 N3        30.08S
STURGEON BAY   SUNNY     61  54  77 N8        30.05S
GREEN BAY      SUNNY     67  57  70 N5        30.05F
MANITOWOC      PTSUNNY   64  55  72 VRB3      30.05S
APPLETON       PTSUNNY   64  54  68 N8        30.06S
CLINTONVILLE   SUNNY     64  54  68 N5        30.06S
OSHKOSH        PTSUNNY   65  58  78 VRB3      30.05S
$$

WIZ032>034-041-042-053>061-301600-
SOUTHWEST WISCONSIN

CITY           SKY/WX    TMP DP  RH WIND       PRES   REMARKS
LA CROSSE      SUNNY     67  59  75 N7        30.08S
SPARTA         CLOUDY    58  58  98 N5        30.10R
VIROQUA        FAIR      65  62  91 NW5       30.09R
BOSCOBEL       SUNNY     69  60  73 CALM      30.08S
PRAIRIE DU CHI SUNNY     68  58  70 NW3       30.08R
PLATTEVILLE    FAIR      66  59  78 N5        30.09S
$$

WIZ056-057-062-063-064-067-068-301600-
SOUTH CENTRAL WISCONSIN

CITY           SKY/WX    TMP DP  RH WIND       PRES   REMARKS
BARABOO/DELLS  CLOUDY    62  56  82 N5        30.07S
LONE ROCK      NOT AVBL
WATERTOWN      CLOUDY    59  58  97 N7        30.06R
MADISON        MOSUNNY   68  58  70 N6        30.06S
MIDDLETON      FAIR      67  58  73 NW3       30.06S
MONROE         SUNNY     66  57  72 NW5       30.07R
JANESVILLE     SUNNY     70  55  60 NW6       30.05S
$$

WIZ051-052-058>065-066-070>072-301600-
SOUTHEAST WISCONSIN

CITY           SKY/WX    TMP DP  RH WIND       PRES   REMARKS
MILWAUKEE      PTSUNNY   65  58  78 VRB5      30.04S
WAUKESHA       CLOUDY    59  57  94 MISG      30.06S
MILWAUKEE/TIMM CLOUDY    64  57  77 N6        30.05R
RACINE         CLOUDY    65  58  78 N6        30.06R
BURLINGTON     PTSUNNY   63  57  82 NW8       30.05R
KENOSHA        MOSUNNY   67  59  75 N6        30.05R
FOND DU LAC    CLOUDY    66  57  72 NE9       30.06R
SHEBOYGAN      SUNNY     65  55  70 N7        30.05R
WEST BEND      PTSUNNY   64  54  68 NE8       30.05R
JUNEAU         CLOUDY    61  58  90 N3        30.07R
$$

LSZ147-162-301600-
LAKE SUPERIOR

STATION/POSITION TIME  TEMP    WIND        PRES    WAVE
                       AIR SEA DIR/SP/G            HT/PER
                 (UTC) (F)     (DEG/KT/KT) (MB)    (FT/S)
W MID LAKE BUOY  1350   47 42  220/  6/  8 1017.9S   0
PORT WING        1400   56     220/  5/  6 1018.6S
SAXON HARBOR     1400           CALM  /  5 1018.3F
$$

LMZ867-665-643>646-301600-
LAKE MICHIGAN

STATION/POSITION TIME  TEMP    WIND        PRES    WAVE
                       AIR SEA DIR/SP/G            HT/PER
                 (UTC) (F)     (DEG/KT/KT) (MB)    (FT/S)
N MID LAKE BUOY  1350   52 54  360/ 10/ 12 1016.4R   1/ 3
NORTHPORT PIER   1400   59     320/  8/ 10 1017.3R
KEWAUNEE LAKESHO 1400   65     350/  4/  6 1017.9R
SHEBOYGAN LAKESH 1400   60     350/ 12/ 12 1017.6R
PORT WASHINGTON  1400   63      40/  5/  7 1017.6S
ATWATER BUOY     1400   62     360/  8     1018.0R
MILWAUKEE LAKESH 1400   62      30/  8/ 10   N/A
S MID LAKE BUOY  1350   60 60  300/  8/  8 1016.7R   1
KENOSHA   LAKESH 1400   63     340/  7/  8 1016.9R
$$

TC  - TEMPERATURE IN CELSIUS
VSB - VISIBILITY IN STATUTE MILES
WCI - WIND CHILL INDEX
HX  - HEAT INDEX



USA.gov is the U.S. government's official web portal to all federal, state and local government web resources and services.